Location: Chuathbaluk
(61.5726°N, 159.2454°W)
Time: 04:13:23
(UTC+00:00)

Transit 4A - Pass Details

Date: 02 December 2020
Orbit: 864 x 980 km, 66.8° (Epoch: 26 January)

Event Time Altitude Azimuth Distance (km) Brightness Sun altitude
Rises 22:14:22 0° 280° (W) 3,686 10.9 6.3°
Reaches altitude 10° 22:17:01 10° 285° (WNW) 2,741 10.2 6.3°
Maximum altitude 22:23:19 54° 2° (N) 1,176 8.2 6.3°
Drops below altitude 10° 22:29:35 10° 80° (E) 2,718 10.3 6.3°
Sets 22:32:12 0° 85° (E) 3,652 10.9 6.3°
